Tracking 20626 objects as of 8-Apr-2020
HD Live streaming from Space Station
objects crossing your sky now

SL-14 R/B

Track SL-14 R/B now!
10-day predictions


NORAD ID: 19196
Int'l Code: 1988-046B
Perigee: 1,491.5 km
Apogee: 1,524.1 km
Inclination: 73.6 °
Period: 116.0 minutes
Semi major axis: 7878 km
RCS: 5.4646 m2 (large)
Launch date: May 30, 1988
Source: Commonwealth of Independent States (former USSR) (CIS)
Launch site: PLESETSK MISSILE AND SPACE COMPLEX (PKMTR)

Note: This is a ROCKET BODY
aabbcc
Your satellite tracking list
Your tracking list is empty




NASA's NSSDC Master Catalog

Two Line Element Set (TLE):
1 19196U 88046B   20098.88251372 -.00000026 +00000-0 -66634-4 0  9996
2 19196 073.5979 240.9779 0020689 179.6699 295.8630 12.41397088443690
Source of the keplerian elements: AFSPC